Content
SEND FEEDBACK

Daily
Averages
Monthly
Summary
United States of America

ANN ARBOR, MICHIGAN


Home > North America > United States > Michigan
Elevation: 759 feet     Latitude: 42 17N     Longitude: 083 43W

WEATHER
 
SELECT A DAY
Number of Records: 203,923;   Date Range: 1/1/95 - 8/30/14
 
SHARE

PRINT THIS DATA

[ ← Previous Day ]
WEATHER ALMANAC - JUNE 15, 2013
[ Next Day → ]
[ °C ]   °F
Weather ElementAverageHighLow
Temperature58.8 °F79 °F (2:53 pm)48.2 °F (4:38 am)
Dewpoint53.8 °F62.1 °F (5:53 pm)48.2 °F (3:01 am)
Humidity85.9 %100 % (2:53 am)50 % (2:53 pm)
Barometer30.04 in30.09 in (7:53 am)29.94 in (11:53 pm)
Wind Speed3.1 mph13.8 mph (5:53 pm)
Wind Gust20.7 mph (5:53 pm)
Weather ElementAverage
Visibility5.4 mi
Wind DirectionESE (117 °)

Weather ElementTotal
Precipitation0.01 in
Heating Degree Days1.4 (Base 65)
Growing Degree Days13.6 (Base 50)
Averaged from 40 records on June 15, 2013
WEATHER CONDITIONS BREAKOUT
WIND DIRECTION BREAKOUT
WEATHER BY HOUR - JUNE 15, 2013
[ °C ]   °F
Local TimeTemperatureDewpointHumidityBarometerVisibilityWind DirectionWind SpeedGust SpeedPrecipitationEventsConditions
1:53 AM52.0 °F51.1 °F97 %30.04 in10.0 miCalmClear
2:25 AM51.8 °F50.0 °F94 %30.05 in1.8 miCalmClear
2:32 AM51.8 °F50.0 °F94 %30.06 in0.8 miCalmClear
2:53 AM50.0 °F50.0 °F100 %30.05 in0.8 miCalmClear
3:01 AM50.0 °F48.2 °F94 %30.06 in1.0 miWSW (240°)3.5 mphClear
3:08 AM50.0 °F50.0 °F100 %30.06 in0.5 miCalmFogFog
3:53 AM51.1 °F50.0 °F96 %30.06 in0.2 miCalmFogFog
4:14 AM50.0 °F50.0 °F100 %30.07 in2.0 miWSW (250°)3.5 mphClear
4:21 AM50.0 °F50.0 °F100 %30.06 in4.0 miCalmClear
4:38 AM48.2 °F48.2 °F100 %30.06 in1.8 miCalmClear
4:43 AM48.2 °F48.2 °F100 %30.06 in0.8 miCalmClear
4:53 AM51.1 °F50.0 °F96 %30.06 in0.8 miCalmClear
4:55 AM51.8 °F50.0 °F94 %30.06 in1.8 miCalmClear
5:02 AM50.0 °F48.2 °F94 %30.06 in2.5 miCalmClear
5:12 AM50.0 °F48.2 °F94 %30.06 in1.2 miCalmClear
5:20 AM48.2 °F48.2 °F100 %30.06 in0.5 miCalmFogFog
5:53 AM50.0 °F48.9 °F96 %30.06 in0.2 miCalmFogFog
6:02 AM48.2 °F48.2 °F100 %30.06 in1.8 miCalmClear
6:09 AM48.2 °F48.2 °F100 %30.07 in0.8 miWest (260°)3.5 mphClear
6:23 AM50.0 °F50.0 °F100 %30.07 in1.8 miWSW (250°)3.5 mphClear
6:30 AM51.8 °F50.0 °F94 %30.07 in2.0 miCalmClear
6:40 AM51.8 °F51.8 °F100 %30.08 in4.0 miCalmClear
6:53 AM53.1 °F52.0 °F96 %30.07 in5.0 miCalmClear
7:53 AM57.9 °F55.9 °F93 %30.09 in8.0 miWSW (240°)3.5 mphClear
8:53 AM64.9 °F59.0 °F81 %30.08 in10.0 miWSW (250°)4.6 mphClear
9:53 AM71.1 °F59.0 °F66 %30.07 in10.0 miWSW (240°)6.9 mphClear
10:53 AM75.0 °F60.1 °F60 %30.05 in10.0 miSW (230°)6.9 mphPartly Cloudy
11:53 AM75.9 °F60.1 °F58 %30.03 in10.0 miWSW (240°)6.9 mphClear
12:53 PM77.0 °F59.0 °F54 %30.01 in10.0 miSSW (210°)8.1 mphScattered Clouds
1:53 PM75.9 °F57.9 °F54 %30.01 in10.0 miWSW (250°)6.9 mphPartly Cloudy
2:53 PM79.0 °F59.0 °F50 %30.01 in10.0 miWSW (240°)10.4 mph17.3 mphPartly Cloudy
3:53 PM77.0 °F59.0 °F54 %30.02 in10.0 miWSW (240°)9.2 mph18.4 mphMostly Cloudy
4:53 PM75.0 °F60.1 °F60 %30.00 in10.0 miWSW (240°)9.2 mphOvercast
5:53 PM71.1 °F62.1 °F73 %30.01 in10.0 miWSW (240°)13.8 mph20.7 mph0.01 inRainLight Rain
6:53 PM71.1 °F62.1 °F73 %29.98 in10.0 miWSW (250°)10.4 mph0.00 inPartly Cloudy
7:53 PM70.0 °F61.0 °F73 %29.96 in10.0 miWSW (250°)4.6 mphClear
8:53 PM66.9 °F61.0 °F81 %29.95 in10.0 miSouth (170°)3.5 mphMostly Cloudy
9:53 PM62.1 °F60.1 °F93 %29.95 in10.0 miCalmClear
10:53 PM63.0 °F59.0 °F87 %29.95 in10.0 miSouth (180°)3.5 mphClear
11:53 PM63.0 °F59.0 °F87 %29.94 in10.0 miSSW (210°)3.5 mphClear
Hourly data recorded from KARB, located miles away from Ann Arbor, Michigan







STORIES FROM OUR PARTNERS